sat.trackr.live / text

‹ back to catalog

STARLINK-32153

NORAD 60330 · 2024-136B

PAYLOAD ACTIVE UNKNOWN

§ Identity

Operator
Country
US
Launch date
2024-08-02
Launch site
AFETR
Launch vehicle
Mass (kg)
RCS (m²)

Purposes: comms

External: N2YO · Heavens-Above · Gunter

§ Orbital elements

Epoch: 2026-09-21T08:46:39.322560Z

Period
93.85 min
Inclination
53.1573°
Eccentricity
0.0001013
Mean motion
15.34377265 rev/d
Perigee alt
462.1 km
Apogee alt
463.5 km
Semi-major
6,840.9 km
B*
-1.8423e-6
RAAN
245.3436°
Arg perigee
82.8379°
Mean anomaly
277.2739°
Rev number
11,964

§ Raw data

STARLINK-321531 60330U 24136B   26264.36573290 -.00000438  00000+0 -18423-5 0  99922 60330  53.1573 245.3436 0001013  82.8379 277.2739 15.34377265119648

JSON: /api/v1/satellites/60330 · /tle

For live sub-satellite position, see the globe view (requires WebGL).

§ Visibility from observer

Set your observer location to see the next 7 days of passes ≥ 10°. The values pass through the URL so the page stays shareable.

No JS? Fill the form by hand. The geolocation button needs JavaScript.